Private Wetterstation Sandau
Wetterdaten: Mittwoch, 28.03.2012
Datum Zeit Temp. A. Feuchte A. Luftdruck Regen Wind Richtung Richtung Taupunkt Windchill
28.03.2012 00:02 10,7 C 76 % 1030,0 hPa 0,0 l/m 4,0 km/h (1 Bft) W 270 6,6 C 10,7 C
28.03.2012 00:07 10,6 C 76 % 1029,8 hPa 0,0 l/m 2,9 km/h (1 Bft) W 270 6,5 C 10,6 C
28.03.2012 00:12 10,6 C 76 % 1029,8 hPa 0,0 l/m 1,4 km/h (1 Bft) W-NW 292 6,5 C 10,6 C
28.03.2012 00:17 10,5 C 77 % 1029,9 hPa 0,0 l/m 3,2 km/h (1 Bft) W-NW 292 6,6 C 10,5 C
28.03.2012 00:22 10,4 C 77 % 1029,8 hPa 0,0 l/m 5,0 km/h (1 Bft) NW 315 6,5 C 10,4 C
28.03.2012 00:27 10,4 C 77 % 1029,9 hPa 0,0 l/m 3,2 km/h (1 Bft) W 270 6,5 C 10,4 C
28.03.2012 00:32 10,3 C 77 % 1029,8 hPa 0,0 l/m 2,9 km/h (1 Bft) NW 315 6,4 C 10,3 C
28.03.2012 00:37 10,2 C 77 % 1029,7 hPa 0,0 l/m 2,5 km/h (1 Bft) W-NW 292 6,4 C 10,2 C
28.03.2012 00:42 10,2 C 77 % 1029,8 hPa 0,0 l/m 2,2 km/h (1 Bft) W-NW 292 6,4 C 10,2 C
28.03.2012 00:47 10,1 C 77 % 1029,8 hPa 0,0 l/m 4,3 km/h (1 Bft) W 270 6,3 C 10,1 C
28.03.2012 00:52 10,1 C 77 % 1029,7 hPa 0,0 l/m 4,0 km/h (1 Bft) W 270 6,3 C 10,1 C
28.03.2012 00:57 9,9 C 77 % 1029,8 hPa 0,0 l/m 4,7 km/h (1 Bft) W 270 6,1 C 9,7 C
28.03.2012 01:02 9,9 C 77 % 1029,8 hPa 0,0 l/m 5,0 km/h (1 Bft) W 270 6,1 C 9,6 C
28.03.2012 01:07 9,9 C 77 % 1029,8 hPa 0,0 l/m 5,8 km/h (2 Bft) W-NW 292 6,1 C 9,4 C
28.03.2012 01:12 9,8 C 77 % 1029,7 hPa 0,0 l/m 7,6 km/h (2 Bft) W-NW 292 6,0 C 8,9 C
28.03.2012 01:17 9,8 C 77 % 1029,7 hPa 0,0 l/m 6,5 km/h (2 Bft) W 270 6,0 C 9,1 C
28.03.2012 01:22 9,8 C 77 % 1029,6 hPa 0,0 l/m 7,2 km/h (2 Bft) NW 315 6,0 C 8,9 C
28.03.2012 01:27 9,6 C 77 % 1029,8 hPa 0,0 l/m 9,0 km/h (2 Bft) W 270 5,8 C 8,3 C
28.03.2012 01:32 9,6 C 77 % 1029,6 hPa 0,0 l/m 4,3 km/h (1 Bft) W-NW 292 5,8 C 9,6 C
28.03.2012 01:37 9,5 C 77 % 1029,5 hPa 0,0 l/m 6,1 km/h (2 Bft) W-NW 292 5,7 C 8,9 C
28.03.2012 01:42 9,5 C 77 % 1029,5 hPa 0,0 l/m 3,2 km/h (1 Bft) W-NW 292 5,7 C 9,5 C
28.03.2012 01:47 9,4 C 77 % 1029,6 hPa 0,0 l/m 1,8 km/h (1 Bft) W-NW 292 5,6 C 9,4 C
28.03.2012 01:52 9,3 C 77 % 1029,6 hPa 0,0 l/m 2,2 km/h (1 Bft) NW 315 5,5 C 9,3 C
28.03.2012 01:57 9,2 C 77 % 1029,5 hPa 0,0 l/m 3,6 km/h (1 Bft) W 270 5,4 C 9,2 C
28.03.2012 02:02 9,2 C 77 % 1029,4 hPa 0,0 l/m 1,8 km/h (1 Bft) W 270 5,4 C 9,2 C
28.03.2012 02:07 9,2 C 77 % 1029,4 hPa 0,0 l/m 0,0 km/h (0 Bft) W 270 5,4 C 9,2 C
28.03.2012 02:12 9,1 C 78 % 1029,2 hPa 0,0 l/m 2,2 km/h (1 Bft) NW 315 5,5 C 9,1 C
28.03.2012 02:17 9,1 C 78 % 1029,4 hPa 0,0 l/m 3,6 km/h (1 Bft) W-NW 292 5,5 C 9,1 C
28.03.2012 02:22 9,0 C 78 % 1029,5 hPa 0,0 l/m 5,0 km/h (1 Bft) W 270 5,4 C 8,6 C
28.03.2012 02:27 8,9 C 78 % 1029,2 hPa 0,0 l/m 0,0 km/h (0 Bft) NW 315 5,3 C 8,9 C
28.03.2012 02:32 8,9 C 78 % 1029,2 hPa 0,0 l/m 1,8 km/h (1 Bft) NW 315 5,3 C 8,9 C
28.03.2012 02:37 8,8 C 78 % 1029,2 hPa 0,0 l/m 4,0 km/h (1 Bft) W 270 5,2 C 8,8 C
28.03.2012 02:42 8,7 C 78 % 1029,3 hPa 0,0 l/m 2,5 km/h (1 Bft) W 270 5,1 C 8,7 C
28.03.2012 02:47 8,6 C 78 % 1029,2 hPa 0,0 l/m 2,5 km/h (1 Bft) W-NW 292 5,0 C 8,6 C
28.03.2012 02:52 8,5 C 78 % 1029,3 hPa 0,0 l/m 4,0 km/h (1 Bft) NW 315 4,9 C 8,5 C
28.03.2012 02:57 8,4 C 78 % 1029,5 hPa 0,0 l/m 5,0 km/h (1 Bft) NW 315 4,8 C 7,9 C
28.03.2012 03:02 8,4 C 78 % 1029,2 hPa 0,0 l/m 4,0 km/h (1 Bft) W 270 4,8 C 8,4 C
28.03.2012 03:07 8,4 C 79 % 1029,0 hPa 0,0 l/m 2,9 km/h (1 Bft) W-NW 292 5,0 C 8,4 C
28.03.2012 03:12 8,3 C 79 % 1029,1 hPa 0,0 l/m 6,1 km/h (2 Bft) W-NW 292 4,9 C 7,5 C
28.03.2012 03:17 8,2 C 79 % 1029,1 hPa 0,0 l/m 0,0 km/h (0 Bft) W-NW 292 4,8 C 8,2 C
28.03.2012 03:22 8,1 C 79 % 1029,1 hPa 0,0 l/m 0,0 km/h (0 Bft) W-NW 292 4,7 C 8,1 C
28.03.2012 03:27 8,1 C 79 % 1029,1 hPa 0,0 l/m 3,2 km/h (1 Bft) W 270 4,7 C 8,1 C
28.03.2012 03:32 8,1 C 80 % 1029,1 hPa 0,0 l/m 2,5 km/h (1 Bft) W-NW 292 4,9 C 8,1 C
28.03.2012 03:37 8,1 C 80 % 1029,0 hPa 0,0 l/m 3,6 km/h (1 Bft) W 270 4,9 C 8,1 C
28.03.2012 03:42 7,9 C 80 % 1029,0 hPa 0,0 l/m 5,8 km/h (2 Bft) W 270 4,7 C 7,1 C
28.03.2012 03:47 7,9 C 80 % 1029,0 hPa 0,0 l/m 3,6 km/h (1 Bft) W-NW 292 4,7 C 7,9 C
28.03.2012 03:52 7,9 C 81 % 1029,0 hPa 0,0 l/m 8,6 km/h (2 Bft) W 270 4,8 C 6,4 C
28.03.2012 03:57 7,8 C 81 % 1029,0 hPa 0,0 l/m 3,2 km/h (1 Bft) W 270 4,7 C 7,8 C
28.03.2012 04:02 7,8 C 81 % 1029,0 hPa 0,0 l/m 5,0 km/h (1 Bft) W-SW 247 4,7 C 7,3 C
28.03.2012 04:07 7,8 C 82 % 1028,8 hPa 0,0 l/m 7,6 km/h (2 Bft) W 270 4,9 C 6,5 C
28.03.2012 04:12 7,7 C 82 % 1028,9 hPa 0,0 l/m 5,0 km/h (1 Bft) W-NW 292 4,8 C 7,1 C
28.03.2012 04:17 7,6 C 82 % 1028,6 hPa 0,0 l/m 3,2 km/h (1 Bft) W 270 4,7 C 7,6 C
28.03.2012 04:22 7,6 C 83 % 1028,7 hPa 0,0 l/m 6,5 km/h (2 Bft) W-NW 292 4,9 C 6,6 C
28.03.2012 04:27 7,6 C 83 % 1028,6 hPa 0,0 l/m 3,6 km/h (1 Bft) W 270 4,9 C 7,6 C
28.03.2012 04:32 7,6 C 83 % 1028,6 hPa 0,0 l/m 4,7 km/h (1 Bft) W 270 4,9 C 7,1 C
28.03.2012 04:37 7,6 C 83 % 1028,4 hPa 0,0 l/m 1,4 km/h (1 Bft) W 270 4,9 C 7,6 C
28.03.2012 04:42 7,5 C 83 % 1028,5 hPa 0,0 l/m 3,2 km/h (1 Bft) W 270 4,8 C 7,5 C
28.03.2012 04:47 7,5 C 83 % 1028,6 hPa 0,0 l/m 3,2 km/h (1 Bft) W 270 4,8 C 7,5 C
28.03.2012 04:52 7,4 C 82 % 1028,5 hPa 0,0 l/m 7,2 km/h (2 Bft) W 270 4,5 C 6,1 C
28.03.2012 04:57 7,3 C 83 % 1028,6 hPa 0,0 l/m 8,3 km/h (2 Bft) W 270 4,6 C 5,8 C
28.03.2012 05:02 7,3 C 83 % 1028,5 hPa 0,0 l/m 6,5 km/h (2 Bft) W-NW 292 4,6 C 6,2 C
28.03.2012 05:07 7,2 C 83 % 1028,6 hPa 0,0 l/m 5,0 km/h (1 Bft) W 270 4,5 C 6,6 C
28.03.2012 05:12 7,2 C 84 % 1028,4 hPa 0,0 l/m 3,2 km/h (1 Bft) W-NW 292 4,7 C 7,2 C
28.03.2012 05:17 7,1 C 84 % 1028,5 hPa 0,0 l/m 4,0 km/h (1 Bft) W-NW 292 4,6 C 7,1 C
28.03.2012 05:22 7,0 C 84 % 1028,5 hPa 0,0 l/m 6,1 km/h (2 Bft) W 270 4,5 C 6,0 C
28.03.2012 05:27 6,9 C 84 % 1028,4 hPa 0,0 l/m 4,7 km/h (1 Bft) W 270 4,4 C 6,3 C
28.03.2012 05:32 6,9 C 85 % 1028,5 hPa 0,0 l/m 4,7 km/h (1 Bft) W-NW 292 4,6 C 6,3 C
28.03.2012 05:37 6,9 C 85 % 1028,5 hPa 0,0 l/m 6,1 km/h (2 Bft) W 270 4,6 C 5,9 C
28.03.2012 05:42 6,8 C 85 % 1028,4 hPa 0,0 l/m 4,7 km/h (1 Bft) W 270 4,5 C 6,2 C
28.03.2012 05:47 6,8 C 85 % 1028,4 hPa 0,0 l/m 5,4 km/h (1 Bft) W-NW 292 4,5 C 6,0 C
28.03.2012 05:52 6,7 C 85 % 1028,5 hPa 0,0 l/m 4,7 km/h (1 Bft) W 270 4,4 C 6,1 C
28.03.2012 05:57 6,6 C 85 % 1028,6 hPa 0,0 l/m 6,8 km/h (2 Bft) W-NW 292 4,3 C 5,3 C
28.03.2012 06:02 6,6 C 85 % 1028,3 hPa 0,0 l/m 4,7 km/h (1 Bft) W 270 4,3 C 6,0 C
28.03.2012 06:07 6,5 C 85 % 1028,4 hPa 0,0 l/m 4,7 km/h (1 Bft) W 270 4,2 C 5,9 C
28.03.2012 06:12 6,5 C 85 % 1028,6 hPa 0,0 l/m 6,5 km/h (2 Bft) W-NW 292 4,2 C 5,3 C
28.03.2012 06:17 6,4 C 85 % 1028,6 hPa 0,0 l/m 4,0 km/h (1 Bft) W-NW 292 4,1 C 6,4 C
28.03.2012 06:22 6,4 C 86 % 1028,5 hPa 0,0 l/m 4,0 km/h (1 Bft) W 270 4,2 C 6,4 C
28.03.2012 06:27 6,4 C 86 % 1028,6 hPa 0,0 l/m 5,8 km/h (2 Bft) W 270 4,2 C 5,4 C
28.03.2012 06:32 6,4 C 86 % 1028,4 hPa 0,0 l/m 4,0 km/h (1 Bft) W 270 4,2 C 6,4 C
28.03.2012 06:37 6,4 C 86 % 1028,4 hPa 0,0 l/m 3,2 km/h (1 Bft) W 270 4,2 C 6,4 C
28.03.2012 06:42 6,4 C 86 % 1028,4 hPa 0,0 l/m 5,4 km/h (1 Bft) W 270 4,2 C 5,5 C
28.03.2012 06:47 6,4 C 86 % 1028,4 hPa 0,0 l/m 3,2 km/h (1 Bft) W 270 4,2 C 6,4 C
28.03.2012 06:52 6,3 C 86 % 1028,1 hPa 0,0 l/m 4,0 km/h (1 Bft) W-NW 292 4,1 C 6,3 C
28.03.2012 06:57 6,3 C 86 % 1028,2 hPa 0,0 l/m 2,9 km/h (1 Bft) W 270 4,1 C 6,3 C
28.03.2012 07:02 6,3 C 86 % 1028,4 hPa 0,0 l/m 4,7 km/h (1 Bft) SW 225 4,1 C 5,7 C
28.03.2012 07:07 6,3 C 86 % 1028,1 hPa 0,0 l/m 6,5 km/h (2 Bft) W 270 4,1 C 5,1 C
28.03.2012 07:12 6,3 C 86 % 1028,1 hPa 0,0 l/m 2,2 km/h (1 Bft) W 270 4,1 C 6,3 C
28.03.2012 07:17 6,3 C 86 % 1028,3 hPa 0,0 l/m 3,6 km/h (1 Bft) W 270 4,1 C 6,3 C
28.03.2012 07:22 6,3 C 86 % 1028,2 hPa 0,0 l/m 4,0 km/h (1 Bft) W-NW 292 4,1 C 6,3 C
28.03.2012 07:27 6,3 C 86 % 1028,3 hPa 0,0 l/m 3,6 km/h (1 Bft) W-SW 247 4,1 C 6,3 C
28.03.2012 07:32 6,2 C 86 % 1028,1 hPa 0,0 l/m 6,8 km/h (2 Bft) W 270 4,0 C 4,9 C
28.03.2012 07:37 6,1 C 86 % 1028,2 hPa 0,0 l/m 5,8 km/h (2 Bft) W-NW 292 3,9 C 5,1 C
28.03.2012 07:42 6,1 C 86 % 1028,3 hPa 0,0 l/m 5,4 km/h (1 Bft) W 270 3,9 C 5,2 C
28.03.2012 07:47 6,1 C 86 % 1028,0 hPa 0,0 l/m 7,6 km/h (2 Bft) W-NW 292 3,9 C 4,5 C
28.03.2012 07:52 6,1 C 86 % 1028,1 hPa 0,0 l/m 3,6 km/h (1 Bft) W 270 3,9 C 6,1 C
28.03.2012 07:57 6,1 C 86 % 1028,1 hPa 0,0 l/m 7,9 km/h (2 Bft) W 270 3,9 C 4,5 C
28.03.2012 08:02 6,1 C 86 % 1028,1 hPa 0,0 l/m 9,0 km/h (2 Bft) W 270 3,9 C 4,2 C
28.03.2012 08:07 6,2 C 86 % 1028,1 hPa 0,0 l/m 5,8 km/h (2 Bft) W 270 4,0 C 5,2 C
28.03.2012 08:12 6,3 C 86 % 1028,0 hPa 0,0 l/m 12,2 km/h (2 Bft) W-NW 292 4,1 C 3,8 C
28.03.2012 08:17 6,4 C 86 % 1028,0 hPa 0,0 l/m 10,1 km/h (2 Bft) W 270 4,2 C 4,3 C
28.03.2012 08:22 6,5 C 86 % 1028,0 hPa 0,0 l/m 9,4 km/h (2 Bft) W 270 4,3 C 4,6 C
28.03.2012 08:27 6,6 C 86 % 1028,0 hPa 0,0 l/m 13,7 km/h (3 Bft) W-NW 292 4,4 C 3,9 C
28.03.2012 08:32 6,6 C 86 % 1028,1 hPa 0,0 l/m 14,4 km/h (3 Bft) W-NW 292 4,4 C 3,8 C
28.03.2012 08:37 6,8 C 86 % 1028,0 hPa 0,0 l/m 10,4 km/h (2 Bft) W-NW 292 4,6 C 4,7 C
28.03.2012 08:42 6,9 C 85 % 1028,2 hPa 0,0 l/m 10,4 km/h (2 Bft) W 270 4,6 C 4,8 C
28.03.2012 08:47 6,9 C 85 % 1028,1 hPa 0,0 l/m 8,3 km/h (2 Bft) W-NW 292 4,6 C 5,3 C
28.03.2012 08:52 7,2 C 85 % 1028,0 hPa 0,0 l/m 8,6 km/h (2 Bft) W 270 4,9 C 5,6 C
28.03.2012 08:57 7,2 C 85 % 1028,1 hPa 0,0 l/m 9,4 km/h (2 Bft) W 270 4,9 C 5,4 C
28.03.2012 09:02 7,4 C 85 % 1028,1 hPa 0,0 l/m 5,8 km/h (2 Bft) W 270 5,0 C 6,5 C
28.03.2012 09:07 7,6 C 84 % 1028,1 hPa 0,0 l/m 11,9 km/h (2 Bft) W 270 5,1 C 5,4 C
28.03.2012 09:12 7,8 C 84 % 1028,0 hPa 0,0 l/m 12,2 km/h (2 Bft) W 270 5,3 C 5,6 C
28.03.2012 09:17 7,9 C 84 % 1028,1 hPa 0,0 l/m 8,3 km/h (2 Bft) W-NW 292 5,4 C 6,5 C
28.03.2012 09:22 8,2 C 83 % 1028,1 hPa 0,0 l/m 7,6 km/h (2 Bft) W-NW 292 5,5 C 7,0 C
28.03.2012 09:27 8,3 C 83 % 1028,0 hPa 0,0 l/m 11,5 km/h (2 Bft) W-SW 247 5,6 C 6,3 C
28.03.2012 09:32 8,5 C 82 % 1028,0 hPa 0,0 l/m 12,6 km/h (3 Bft) W-NW 292 5,6 C 6,4 C
28.03.2012 09:37 8,7 C 82 % 1028,1 hPa 0,0 l/m 10,8 km/h (2 Bft) NW 315 5,8 C 6,9 C
28.03.2012 09:42 8,9 C 81 % 1028,0 hPa 0,0 l/m 8,6 km/h (2 Bft) W-NW 292 5,8 C 7,6 C
28.03.2012 09:47 9,1 C 81 % 1027,9 hPa 0,0 l/m 9,4 km/h (2 Bft) NW 315 6,0 C 7,7 C
28.03.2012 09:52 9,3 C 80 % 1027,9 hPa 0,0 l/m 8,3 km/h (2 Bft) W-NW 292 6,0 C 8,1 C
28.03.2012 09:57 9,5 C 79 % 1027,8 hPa 0,0 l/m 11,9 km/h (2 Bft) W-NW 292 6,0 C 7,7 C
28.03.2012 10:02 9,7 C 79 % 1027,9 hPa 0,0 l/m 10,4 km/h (2 Bft) W-NW 292 6,2 C 8,2 C
28.03.2012 10:07 9,9 C 78 % 1027,8 hPa 0,0 l/m 11,9 km/h (2 Bft) W-NW 292 6,2 C 8,2 C
28.03.2012 10:12 10,1 C 78 % 1027,8 hPa 0,0 l/m 11,2 km/h (2 Bft) W-NW 292 6,4 C 10,1 C
28.03.2012 10:17 10,3 C 77 % 1027,8 hPa 0,0 l/m 13,0 km/h (3 Bft) W-NW 292 6,4 C 10,3 C
28.03.2012 10:22 10,5 C 77 % 1027,9 hPa 0,0 l/m 7,2 km/h (2 Bft) NW 315 6,6 C 10,5 C
28.03.2012 10:27 10,8 C 76 % 1027,9 hPa 0,0 l/m 10,4 km/h (2 Bft) W 270 6,7 C 10,8 C
28.03.2012 10:32 11,0 C 75 % 1027,9 hPa 0,0 l/m 10,4 km/h (2 Bft) W 270 6,7 C 11,0 C
28.03.2012 10:37 11,3 C 75 % 1027,9 hPa 0,0 l/m 8,6 km/h (2 Bft) W-NW 292 7,0 C 11,3 C
28.03.2012 10:42 11,5 C 74 % 1027,9 hPa 0,0 l/m 11,2 km/h (2 Bft) W-NW 292 7,0 C 11,5 C
28.03.2012 10:47 11,6 C 73 % 1027,6 hPa 0,0 l/m 7,6 km/h (2 Bft) N 360 6,9 C 11,6 C
28.03.2012 10:52 11,9 C 73 % 1027,5 hPa 0,0 l/m 6,1 km/h (2 Bft) W 270 7,2 C 11,9 C
28.03.2012 10:57 12,1 C 73 % 1027,3 hPa 0,0 l/m 8,3 km/h (2 Bft) NW 315 7,4 C 12,1 C
28.03.2012 11:02 12,3 C 72 % 1027,3 hPa 0,0 l/m 16,9 km/h (3 Bft) N 360 7,4 C 12,3 C
28.03.2012 11:07 12,4 C 71 % 1027,3 hPa 0,0 l/m 10,8 km/h (2 Bft) N-NW 337 7,3 C 12,4 C
28.03.2012 11:12 12,6 C 69 % 1027,3 hPa 0,0 l/m 9,4 km/h (2 Bft) W-NW 292 7,1 C 12,6 C
28.03.2012 11:17 12,9 C 69 % 1027,2 hPa 0,0 l/m 8,6 km/h (2 Bft) W-NW 292 7,4 C 12,9 C
28.03.2012 11:22 13,1 C 68 % 1027,2 hPa 0,0 l/m 9,7 km/h (2 Bft) W-NW 292 7,3 C 13,1 C
28.03.2012 11:27 13,2 C 67 % 1027,2 hPa 0,0 l/m 9,7 km/h (2 Bft) W-NW 292 7,2 C 13,2 C
28.03.2012 11:32 13,4 C 66 % 1027,0 hPa 0,0 l/m 9,7 km/h (2 Bft) W-NW 292 7,2 C 13,4 C
28.03.2012 11:37 13,6 C 66 % 1027,0 hPa 0,0 l/m 14,4 km/h (3 Bft) W 270 7,4 C 13,6 C
28.03.2012 11:42 13,6 C 66 % 1026,8 hPa 0,0 l/m 9,0 km/h (2 Bft) W-NW 292 7,4 C 13,6 C
28.03.2012 11:47 13,8 C 65 % 1026,9 hPa 0,0 l/m 17,6 km/h (3 Bft) W-NW 292 7,3 C 13,8 C
28.03.2012 11:52 13,9 C 64 % 1026,8 hPa 0,0 l/m 15,5 km/h (3 Bft) W 270 7,2 C 13,9 C
28.03.2012 11:57 14,1 C 63 % 1026,7 hPa 0,0 l/m 7,9 km/h (2 Bft) W 270 7,2 C 14,1 C
28.03.2012 12:02 14,2 C 63 % 1026,7 hPa 0,0 l/m 9,0 km/h (2 Bft) W-SW 247 7,3 C 14,2 C
28.03.2012 12:07 14,3 C 62 % 1026,6 hPa 0,0 l/m 6,8 km/h (2 Bft) W 270 7,1 C 14,3 C
28.03.2012 12:12 14,5 C 61 % 1026,6 hPa 0,0 l/m 10,8 km/h (2 Bft) W-NW 292 7,1 C 14,5 C
28.03.2012 12:17 14,8 C 59 % 1026,6 hPa 0,0 l/m 11,9 km/h (2 Bft) W 270 6,9 C 14,8 C
28.03.2012 12:22 14,9 C 59 % 1026,5 hPa 0,0 l/m 15,5 km/h (3 Bft) W 270 7,0 C 14,9 C
28.03.2012 12:27 15,1 C 58 % 1026,5 hPa 0,0 l/m 5,4 km/h (1 Bft) W-NW 292 6,9 C 15,1 C
28.03.2012 12:32 15,4 C 57 % 1026,2 hPa 0,0 l/m 11,2 km/h (2 Bft) W 270 6,9 C 15,4 C
28.03.2012 12:37 15,6 C 56 % 1026,3 hPa 0,0 l/m 16,6 km/h (3 Bft) W-NW 292 6,9 C 15,6 C
28.03.2012 12:42 15,8 C 55 % 1026,2 hPa 0,0 l/m 6,8 km/h (2 Bft) W-NW 292 6,8 C 15,8 C
28.03.2012 12:47 16,1 C 55 % 1026,3 hPa 0,0 l/m 13,3 km/h (3 Bft) W-NW 292 7,1 C 16,1 C
28.03.2012 12:52 16,2 C 54 % 1026,1 hPa 0,0 l/m 19,1 km/h (3 Bft) W-NW 292 6,9 C 16,2 C
28.03.2012 12:57 16,4 C 53 % 1026,1 hPa 0,0 l/m 9,4 km/h (2 Bft) W 270 6,8 C 16,4 C
28.03.2012 13:02 16,6 C 53 % 1025,9 hPa 0,0 l/m 20,5 km/h (4 Bft) W 270 7,0 C 16,6 C
28.03.2012 13:07 16,8 C 50 % 1025,9 hPa 0,0 l/m 12,2 km/h (2 Bft) W 270 6,3 C 16,8 C
28.03.2012 13:12 17,0 C 49 % 1025,5 hPa 0,0 l/m 16,9 km/h (3 Bft) W-NW 292 6,2 C 17,0 C
28.03.2012 13:17 17,2 C 48 % 1025,6 hPa 0,0 l/m 9,0 km/h (2 Bft) NW 315 6,1 C 17,2 C
28.03.2012 13:22 17,3 C 47 % 1025,6 hPa 0,0 l/m 5,4 km/h (1 Bft) W-NW 292 5,9 C 17,3 C
28.03.2012 13:27 17,5 C 42 % 1025,5 hPa 0,0 l/m 8,6 km/h (2 Bft) W 270 4,4 C 17,5 C
28.03.2012 13:32 17,8 C 43 % 1025,6 hPa 0,0 l/m 13,0 km/h (3 Bft) NW 315 5,1 C 17,8 C
28.03.2012 13:37 17,9 C 40 % 1025,5 hPa 0,0 l/m 28,1 km/h (4 Bft) W 270 4,1 C 17,9 C
28.03.2012 13:42 18,1 C 38 % 1025,4 hPa 0,0 l/m 5,8 km/h (2 Bft) O-NO 67 3,6 C 18,1 C
28.03.2012 13:47 18,3 C 38 % 1025,3 hPa 0,0 l/m 5,0 km/h (1 Bft) NW 315 3,7 C 18,3 C
28.03.2012 13:52 18,4 C 38 % 1025,4 hPa 0,0 l/m 9,7 km/h (2 Bft) NW 315 3,8 C 18,4 C
28.03.2012 13:57 18,5 C 38 % 1025,4 hPa 0,0 l/m 12,2 km/h (2 Bft) N-NO 22 3,9 C 18,5 C
28.03.2012 14:02 18,6 C 35 % 1025,3 hPa 0,0 l/m 25,2 km/h (4 Bft) W 270 2,8 C 18,6 C
28.03.2012 14:07 18,6 C 34 % 1025,1 hPa 0,0 l/m 9,4 km/h (2 Bft) N 360 2,4 C 18,6 C
28.03.2012 14:12 18,7 C 34 % 1025,2 hPa 0,0 l/m 5,8 km/h (2 Bft) NW 315 2,5 C 18,7 C
28.03.2012 14:17 18,8 C 35 % 1025,1 hPa 0,0 l/m 18,0 km/h (3 Bft) W 270 3,0 C 18,8 C
28.03.2012 14:22 18,9 C 36 % 1024,9 hPa 0,0 l/m 14,0 km/h (3 Bft) N-NW 337 3,5 C 18,9 C
28.03.2012 14:27 19,1 C 36 % 1024,8 hPa 0,0 l/m 16,9 km/h (3 Bft) N-NW 337 3,7 C 19,1 C
28.03.2012 14:32 19,1 C 36 % 1024,7 hPa 0,0 l/m 17,6 km/h (3 Bft) NW 315 3,7 C 19,1 C
28.03.2012 14:37 19,1 C 36 % 1024,8 hPa 0,0 l/m 20,5 km/h (4 Bft) N 360 3,7 C 19,1 C
28.03.2012 14:42 19,1 C 36 % 1024,6 hPa 0,0 l/m 20,9 km/h (4 Bft) NW 315 3,7 C 19,1 C
28.03.2012 14:47 19,1 C 36 % 1024,6 hPa 0,0 l/m 15,8 km/h (3 Bft) NW 315 3,7 C 19,1 C
28.03.2012 14:52 19,2 C 36 % 1024,4 hPa 0,0 l/m 12,6 km/h (3 Bft) N 360 3,8 C 19,2 C
28.03.2012 14:57 19,1 C 36 % 1024,4 hPa 0,0 l/m 19,8 km/h (3 Bft) W-NW 292 3,7 C 19,1 C
28.03.2012 15:02 19,2 C 36 % 1024,3 hPa 0,0 l/m 9,4 km/h (2 Bft) N-NW 337 3,8 C 19,2 C
28.03.2012 15:07 19,3 C 36 % 1024,2 hPa 0,0 l/m 15,5 km/h (3 Bft) S-SW 202 3,9 C 19,3 C
28.03.2012 15:12 19,2 C 36 % 1024,1 hPa 0,0 l/m 8,6 km/h (2 Bft) W-SW 247 3,8 C 19,2 C
28.03.2012 15:17 19,3 C 37 % 1024,0 hPa 0,0 l/m 19,1 km/h (3 Bft) NW 315 4,2 C 19,3 C
28.03.2012 15:22 19,3 C 37 % 1023,9 hPa 0,0 l/m 6,5 km/h (2 Bft) W-NW 292 4,2 C 19,3 C
28.03.2012 15:27 19,4 C 36 % 1023,8 hPa 0,0 l/m 14,8 km/h (3 Bft) W 270 3,9 C 19,4 C
28.03.2012 15:32 19,4 C 36 % 1023,8 hPa 0,0 l/m 3,6 km/h (1 Bft) W 270 3,9 C 19,4 C
28.03.2012 15:37 19,3 C 36 % 1023,7 hPa 0,0 l/m 13,3 km/h (3 Bft) W-NW 292 3,9 C 19,3 C
28.03.2012 15:42 19,3 C 36 % 1023,9 hPa 0,0 l/m 23,4 km/h (4 Bft) W 270 3,9 C 19,3 C
28.03.2012 15:47 19,4 C 36 % 1023,7 hPa 0,0 l/m 24,1 km/h (4 Bft) NW 315 3,9 C 19,4 C
28.03.2012 15:52 19,5 C 35 % 1023,6 hPa 0,0 l/m 9,7 km/h (2 Bft) N-NO 22 3,6 C 19,5 C
28.03.2012 15:57 19,5 C 34 % 1023,5 hPa 0,0 l/m 7,6 km/h (2 Bft) N-NO 22 3,2 C 19,5 C
28.03.2012 16:02 19,4 C 34 % 1023,4 hPa 0,0 l/m 12,6 km/h (3 Bft) NO 45 3,1 C 19,4 C
28.03.2012 16:07 19,4 C 33 % 1023,4 hPa 0,0 l/m 7,2 km/h (2 Bft) NO 45 2,7 C 19,4 C
28.03.2012 16:12 19,4 C 33 % 1023,4 hPa 0,0 l/m 6,1 km/h (2 Bft) S 180 2,7 C 19,4 C
28.03.2012 16:17 19,4 C 33 % 1023,2 hPa 0,0 l/m 19,1 km/h (3 Bft) NW 315 2,7 C 19,4 C
28.03.2012 16:22 19,3 C 34 % 1023,0 hPa 0,0 l/m 7,2 km/h (2 Bft) N-NW 337 3,0 C 19,3 C
28.03.2012 16:27 19,4 C 34 % 1023,2 hPa 0,0 l/m 13,7 km/h (3 Bft) W-NW 292 3,1 C 19,4 C
28.03.2012 16:32 19,4 C 34 % 1023,1 hPa 0,0 l/m 5,4 km/h (1 Bft) NW 315 3,1 C 19,4 C
28.03.2012 16:37 19,3 C 34 % 1022,8 hPa 0,0 l/m 6,5 km/h (2 Bft) N 360 3,0 C 19,3 C
28.03.2012 16:42 19,3 C 34 % 1022,7 hPa 0,0 l/m 5,8 km/h (2 Bft) NO 45 3,0 C 19,3 C
28.03.2012 16:47 19,2 C 34 % 1022,8 hPa 0,0 l/m 8,3 km/h (2 Bft) O-NO 67 3,0 C 19,2 C
28.03.2012 16:52 19,2 C 34 % 1022,7 hPa 0,0 l/m 15,1 km/h (3 Bft) O-NO 67 3,0 C 19,2 C
28.03.2012 16:57 19,2 C 35 % 1022,6 hPa 0,0 l/m 15,1 km/h (3 Bft) N 360 3,4 C 19,2 C
28.03.2012 17:02 19,1 C 35 % 1022,6 hPa 0,0 l/m 7,9 km/h (2 Bft) O-NO 67 3,3 C 19,1 C
28.03.2012 17:07 18,9 C 34 % 1022,6 hPa 0,0 l/m 10,1 km/h (2 Bft) N-NO 22 2,7 C 18,9 C
28.03.2012 17:12 18,9 C 35 % 1022,7 hPa 0,0 l/m 14,4 km/h (3 Bft) NW 315 3,1 C 18,9 C
28.03.2012 17:17 18,9 C 36 % 1022,6 hPa 0,0 l/m 13,0 km/h (3 Bft) N-NO 22 3,5 C 18,9 C
28.03.2012 17:22 18,9 C 36 % 1022,5 hPa 0,0 l/m 9,4 km/h (2 Bft) N-NW 337 3,5 C 18,9 C
28.03.2012 17:27 18,9 C 37 % 1022,5 hPa 0,0 l/m 7,9 km/h (2 Bft) N 360 3,9 C 18,9 C
28.03.2012 17:32 18,8 C 36 % 1022,2 hPa 0,0 l/m 9,0 km/h (2 Bft) W-SW 247 3,4 C 18,8 C
28.03.2012 17:37 18,7 C 37 % 1022,1 hPa 0,0 l/m 6,5 km/h (2 Bft) N 360 3,7 C 18,7 C
28.03.2012 17:42 18,7 C 37 % 1022,2 hPa 0,0 l/m 10,8 km/h (2 Bft) N-NW 337 3,7 C 18,7 C
28.03.2012 17:47 18,6 C 37 % 1022,1 hPa 0,0 l/m 13,0 km/h (3 Bft) O 90 3,6 C 18,6 C
28.03.2012 17:52 18,5 C 38 % 1021,9 hPa 0,0 l/m 13,3 km/h (3 Bft) W 270 3,9 C 18,5 C
28.03.2012 17:57 18,5 C 38 % 1022,1 hPa 0,0 l/m 4,0 km/h (1 Bft) N-NW 337 3,9 C 18,5 C
28.03.2012 18:02 18,4 C 39 % 1022,1 hPa 0,0 l/m 6,5 km/h (2 Bft) W-NW 292 4,2 C 18,4 C
28.03.2012 18:07 18,3 C 40 % 1022,0 hPa 0,0 l/m 13,0 km/h (3 Bft) W-NW 292 4,5 C 18,3 C
28.03.2012 18:12 18,2 C 40 % 1021,9 hPa 0,0 l/m 8,6 km/h (2 Bft) NW 315 4,4 C 18,2 C
28.03.2012 18:17 18,1 C 40 % 1021,9 hPa 0,0 l/m 8,3 km/h (2 Bft) N 360 4,3 C 18,1 C
28.03.2012 18:22 17,9 C 41 % 1021,7 hPa 0,0 l/m 4,7 km/h (1 Bft) NW 315 4,5 C 17,9 C
28.03.2012 18:27 17,8 C 41 % 1021,6 hPa 0,0 l/m 6,1 km/h (2 Bft) NW 315 4,4 C 17,8 C
28.03.2012 18:32 17,8 C 41 % 1021,6 hPa 0,0 l/m 12,2 km/h (2 Bft) NW 315 4,4 C 17,8 C
28.03.2012 18:37 17,6 C 40 % 1021,6 hPa 0,0 l/m 7,2 km/h (2 Bft) W 270 3,8 C 17,6 C
28.03.2012 18:42 17,5 C 40 % 1021,6 hPa 0,0 l/m 10,1 km/h (2 Bft) NW 315 3,8 C 17,5 C
28.03.2012 18:47 17,3 C 40 % 1021,6 hPa 0,0 l/m 16,6 km/h (3 Bft) W 270 3,6 C 17,3 C
28.03.2012 18:52 17,2 C 40 % 1021,6 hPa 0,0 l/m 10,8 km/h (2 Bft) NW 315 3,5 C 17,2 C
28.03.2012 18:57 16,9 C 40 % 1021,5 hPa 0,0 l/m 14,4 km/h (3 Bft) W 270 3,2 C 16,9 C
28.03.2012 19:02 16,8 C 40 % 1021,5 hPa 0,0 l/m 11,5 km/h (2 Bft) SW 225 3,1 C 16,8 C
28.03.2012 19:07 16,6 C 40 % 1021,4 hPa 0,0 l/m 20,9 km/h (4 Bft) W-NW 292 2,9 C 16,6 C
28.03.2012 19:12 16,4 C 40 % 1021,4 hPa 0,0 l/m 19,4 km/h (3 Bft) W-NW 292 2,8 C 16,4 C
28.03.2012 19:17 16,3 C 41 % 1021,4 hPa 0,0 l/m 10,1 km/h (2 Bft) W-NW 292 3,0 C 16,3 C
28.03.2012 19:22 16,1 C 42 % 1021,4 hPa 0,0 l/m 14,4 km/h (3 Bft) NW 315 3,2 C 16,1 C
28.03.2012 19:27 15,9 C 42 % 1021,1 hPa 0,0 l/m 11,2 km/h (2 Bft) W 270 3,0 C 15,9 C
28.03.2012 19:32 15,8 C 43 % 1021,0 hPa 0,0 l/m 21,6 km/h (4 Bft) NW 315 3,3 C 15,8 C
28.03.2012 19:37 15,6 C 43 % 1021,0 hPa 0,0 l/m 13,3 km/h (3 Bft) NW 315 3,1 C 15,6 C
28.03.2012 19:42 15,5 C 44 % 1020,9 hPa 0,0 l/m 19,8 km/h (3 Bft) W-NW 292 3,3 C 15,5 C
28.03.2012 19:47 15,4 C 44 % 1020,9 hPa 0,0 l/m 16,2 km/h (3 Bft) W-NW 292 3,2 C 15,4 C
28.03.2012 19:52 15,3 C 45 % 1020,9 hPa 0,0 l/m 7,2 km/h (2 Bft) W-NW 292 3,4 C 15,3 C
28.03.2012 19:57 15,0 C 45 % 1020,6 hPa 0,0 l/m 12,2 km/h (2 Bft) W 270 3,2 C 15,0 C
28.03.2012 20:02 14,9 C 46 % 1020,6 hPa 0,0 l/m 16,6 km/h (3 Bft) W 270 3,4 C 14,9 C
28.03.2012 20:07 14,9 C 46 % 1020,3 hPa 0,0 l/m 15,1 km/h (3 Bft) W-NW 292 3,4 C 14,9 C
28.03.2012 20:12 14,9 C 46 % 1020,4 hPa 0,0 l/m 15,5 km/h (3 Bft) W 270 3,4 C 14,9 C
28.03.2012 20:17 14,8 C 47 % 1020,4 hPa 0,0 l/m 16,9 km/h (3 Bft) W-NW 292 3,6 C 14,8 C
28.03.2012 20:22 14,6 C 47 % 1020,4 hPa 0,0 l/m 10,8 km/h (2 Bft) W-NW 292 3,4 C 14,6 C
28.03.2012 20:27 14,6 C 47 % 1020,4 hPa 0,0 l/m 10,8 km/h (2 Bft) W-SW 247 3,4 C 14,6 C
28.03.2012 20:32 14,5 C 47 % 1020,5 hPa 0,0 l/m 18,0 km/h (3 Bft) SW 225 3,3 C 14,5 C
28.03.2012 20:37 14,4 C 47 % 1020,6 hPa 0,0 l/m 10,8 km/h (2 Bft) W 270 3,2 C 14,4 C
28.03.2012 20:42 14,3 C 48 % 1020,4 hPa 0,0 l/m 13,7 km/h (3 Bft) W 270 3,4 C 14,3 C
28.03.2012 20:47 14,3 C 48 % 1020,3 hPa 0,0 l/m 23,0 km/h (4 Bft) W-NW 292 3,4 C 14,3 C
28.03.2012 20:52 14,2 C 48 % 1020,3 hPa 0,0 l/m 21,6 km/h (4 Bft) W-NW 292 3,4 C 14,2 C
28.03.2012 20:57 14,2 C 48 % 1020,3 hPa 0,0 l/m 14,0 km/h (3 Bft) W-NW 292 3,4 C 14,2 C
28.03.2012 21:02 14,1 C 48 % 1020,3 hPa 0,0 l/m 18,0 km/h (3 Bft) W-NW 292 3,3 C 14,1 C
28.03.2012 21:07 14,0 C 48 % 1020,2 hPa 0,0 l/m 20,5 km/h (4 Bft) W 270 3,2 C 14,0 C
28.03.2012 21:12 13,9 C 49 % 1020,1 hPa 0,0 l/m 31,3 km/h (5 Bft) W-NW 292 3,4 C 13,9 C
28.03.2012 21:17 13,9 C 49 % 1020,2 hPa 0,0 l/m 17,3 km/h (3 Bft) W 270 3,4 C 13,9 C
28.03.2012 21:22 13,8 C 50 % 1020,2 hPa 0,0 l/m 22,0 km/h (4 Bft) NW 315 3,6 C 13,8 C
28.03.2012 21:27 13,8 C 50 % 1020,2 hPa 0,0 l/m 23,0 km/h (4 Bft) W-NW 292 3,6 C 13,8 C
28.03.2012 21:32 13,8 C 51 % 1020,2 hPa 0,0 l/m 25,2 km/h (4 Bft) W-NW 292 3,8 C 13,8 C
28.03.2012 21:37 13,6 C 51 % 1020,0 hPa 0,0 l/m 17,3 km/h (3 Bft) W 270 3,7 C 13,6 C
28.03.2012 21:42 13,5 C 51 % 1019,9 hPa 0,0 l/m 21,2 km/h (4 Bft) W-SW 247 3,6 C 13,5 C
28.03.2012 21:47 13,5 C 52 % 1020,0 hPa 0,0 l/m 19,8 km/h (3 Bft) W 270 3,8 C 13,5 C
28.03.2012 21:52 13,4 C 52 % 1019,8 hPa 0,0 l/m 15,8 km/h (3 Bft) W 270 3,7 C 13,4 C
28.03.2012 21:57 13,4 C 52 % 1020,0 hPa 0,0 l/m 18,4 km/h (3 Bft) NW 315 3,7 C 13,4 C
28.03.2012 22:02 13,3 C 53 % 1019,8 hPa 0,0 l/m 14,0 km/h (3 Bft) W 270 3,9 C 13,3 C
28.03.2012 22:07 13,3 C 53 % 1019,8 hPa 0,0 l/m 31,3 km/h (5 Bft) W 270 3,9 C 13,3 C
28.03.2012 22:12 13,2 C 54 % 1019,6 hPa 0,0 l/m 26,3 km/h (4 Bft) W-SW 247 4,1 C 13,2 C
28.03.2012 22:17 13,2 C 54 % 1019,7 hPa 0,0 l/m 12,2 km/h (2 Bft) W-NW 292 4,1 C 13,2 C
28.03.2012 22:22 13,1 C 54 % 1019,4 hPa 0,0 l/m 24,5 km/h (4 Bft) W-NW 292 4,0 C 13,1 C
28.03.2012 22:27 13,0 C 55 % 1019,3 hPa 0,0 l/m 12,6 km/h (3 Bft) W-NW 292 4,2 C 13,0 C
28.03.2012 22:32 12,9 C 55 % 1019,2 hPa 0,0 l/m 24,8 km/h (4 Bft) W-NW 292 4,1 C 12,9 C
28.03.2012 22:37 12,9 C 55 % 1019,2 hPa 0,0 l/m 15,5 km/h (3 Bft) W-NW 292 4,1 C 12,9 C
28.03.2012 22:42 12,8 C 56 % 1019,2 hPa 0,0 l/m 18,0 km/h (3 Bft) W 270 4,2 C 12,8 C
28.03.2012 22:47 12,7 C 56 % 1019,2 hPa 0,0 l/m 18,4 km/h (3 Bft) W-NW 292 4,2 C 12,7 C
28.03.2012 22:52 12,6 C 56 % 1019,1 hPa 0,0 l/m 14,8 km/h (3 Bft) W-NW 292 4,1 C 12,6 C
28.03.2012 22:57 12,4 C 56 % 1019,2 hPa 0,0 l/m 11,2 km/h (2 Bft) W-SW 247 3,9 C 12,4 C
28.03.2012 23:02 12,4 C 57 % 1019,2 hPa 0,0 l/m 19,1 km/h (3 Bft) NW 315 4,1 C 12,4 C
28.03.2012 23:07 12,3 C 57 % 1019,0 hPa 0,0 l/m 14,8 km/h (3 Bft) NW 315 4,0 C 12,3 C
28.03.2012 23:12 12,1 C 58 % 1019,2 hPa 0,0 l/m 25,2 km/h (4 Bft) W-NW 292 4,1 C 12,1 C
28.03.2012 23:17 12,0 C 58 % 1019,1 hPa 0,0 l/m 21,2 km/h (4 Bft) N-NW 337 4,0 C 12,0 C
28.03.2012 23:22 11,9 C 59 % 1019,1 hPa 0,0 l/m 7,6 km/h (2 Bft) N 360 4,1 C 11,9 C
28.03.2012 23:27 11,6 C 60 % 1019,2 hPa 0,0 l/m 11,5 km/h (2 Bft) N-NO 22 4,1 C 11,6 C
28.03.2012 23:32 11,3 C 62 % 1019,1 hPa 0,0 l/m 10,8 km/h (2 Bft) NW 315 4,3 C 11,3 C
28.03.2012 23:37 10,9 C 64 % 1019,3 hPa 0,0 l/m 5,4 km/h (1 Bft) N 360 4,4 C 10,9 C
28.03.2012 23:42 10,6 C 66 % 1019,4 hPa 0,0 l/m 23,4 km/h (4 Bft) NW 315 4,5 C 10,6 C
28.03.2012 23:47 10,3 C 68 % 1019,2 hPa 0,0 l/m 7,2 km/h (2 Bft) NW 315 4,7 C 10,3 C
28.03.2012 23:52 10,1 C 68 % 1019,0 hPa 0,0 l/m 9,0 km/h (2 Bft) W 270 4,5 C 10,1 C
28.03.2012 23:57 10,1 C 69 % 1019,0 hPa 0,0 l/m 27,7 km/h (4 Bft) N-NW 337 4,7 C 10,1 C
_ Min-Zeit 07:37 16:07 23:07 - 02:07 - - 14:07 08:12
Minimum _ 6,1 C 33 % 1019,0 hPa - 0,0 km/h (0 Bft) - - 2,4 C 3,8 C
_ Max-Zeit 15:52 06:22 00:02 00:02 21:12 - - 10:57 15:52
Maximum _ 19,5 C 86 % 1030,0 hPa 0,0 l/m 31,3 km/h
W-NW (5 Bft)
- - 7,4 C 19,5 C
Durchschnitt _ 12,5 C 62 % 1025,4 hPa #0,0 l/m 10,2 km/h (2 Bft) W - 4,7 C 12,2 C
(c) by David Heller